GW1938 Weather Reports


time (UTC)temp
C
wind
direction
speed
KPH
gust
KPH
rain 1hr
cm
rain 24hr
cm
rain mn
cm
humidity
%
barometer
mb
20260509063919 18 193 16.1 24.1 0.00 0.00 0.00 59 1021.5
20260509063417 18 197 12.9 20.9 0.00 0.00 0.00 59 1021.5
20260509062917 18 184 12.9 20.9 0.00 0.00 0.00 59 1021.4
20260509062415 18 194 16.1 25.7 0.00 0.00 0.00 59 1021.5
20260509061913 19 197 16.1 25.7 0.00 0.00 0.00 59 1021.4
20260509061412 19 197 11.3 19.3 0.00 0.00 0.00 60 1021.4
20260509060910 19 195 14.5 27.4 0.00 0.00 0.00 60 1021.3
20260509060408 19 186 14.5 24.1 0.00 0.00 0.00 60 1021.3
20260509055906 19 197 17.7 27.4 0.00 0.00 0.00 60 1021.2
20260509055405 19 191 14.5 24.1 0.00 0.00 0.00 59 1021.2
20260509054903 19 188 16.1 25.7 0.00 0.00 0.00 59 1021.1
20260509054402 19 193 16.1 27.4 0.00 0.00 0.00 59 1021.1
20260509053900 19 181 16.1 24.1 0.00 0.00 0.00 58 1021.1
20260509053357 19 185 14.5 25.7 0.00 0.00 0.00 58 1021.0
20260509052352 20 196 11.3 19.3 0.00 0.00 0.00 58 1021.1
20260509051346 19 191 12.9 24.1 0.00 0.00 0.00 56 1021.0
20260509050845 19 205 17.7 25.7 0.00 0.00 0.00 60 1021.0
20260509045839 20 199 12.9 20.9 0.00 0.00 0.00 58 1021.0
20260509045338 19 205 17.7 27.4 0.00 0.00 0.00 60 1020.9
20260509043828 19 193 17.7 29.0 0.00 0.00 0.00 59 1020.9
20260509043326 20 192 17.7 25.7 0.00 0.00 0.00 56 1020.9
20260509042824 19 191 16.1 25.7 0.00 0.00 0.00 60 1020.9
20260509042322 19 193 17.7 27.4 0.00 0.00 0.00 60 1020.9
20260509041316 20 204 11.3 24.1 0.00 0.00 0.00 60 1020.9
20260509040224 20 199 16.1 24.1 0.00 0.00 0.00 58 1021.0
20260509035109 19 205 16.1 27.4 0.00 0.00 0.00 58 1021.0
20260509034104 19 204 19.3 27.4 0.00 0.00 0.00 57 1021.0
20260509033602 19 208 17.7 29.0 0.00 0.00 0.00 55 1021.0
20260509032054 19 203 17.7 32.2 0.00 0.00 0.00 55 1021.0
20260509031553 18 207 20.9 32.2 0.00 0.00 0.00 57 1021.2
20260509030548 19 200 20.9 33.8 0.00 0.00 0.00 55 1021.2
20260509025544 20 196 16.1 24.1 0.00 0.00 0.00 51 1021.3
20260509024539 20 211 17.7 27.4 0.00 0.00 0.00 49 1021.4
20260509024038 20 188 9.7 19.3 0.00 0.00 0.00 46 1021.4
20260509023537 20 219 9.7 20.9 0.00 0.00 0.00 47 1021.5
20260509023035 20 213 11.3 24.1 0.00 0.00 0.00 49 1021.5
20260509022534 19 222 14.5 29.0 0.00 0.00 0.00 48 1021.5
20260509022033 19 219 12.9 24.1 0.00 0.00 0.00 48 1021.6
20260509021026 19 219 12.9 24.1 0.00 0.00 0.00 47 1021.6
20260509020525 19 222 12.9 25.7 0.00 0.00 0.00 52 1021.6
20260509020022 19 219 14.5 24.1 0.00 0.00 0.00 49 1021.7
20260509015521 19 231 14.5 27.4 0.00 0.00 0.00 47 1021.8
20260509014013 19 230 9.7 19.3 0.00 0.00 0.00 51 1022.0
20260509013512 19 250 9.7 14.5 0.00 0.00 0.00 53 1022.0
20260509012506 18 242 11.3 20.9 0.00 0.00 0.00 53 1022.2
20260509012004 18 249 11.3 19.3 0.00 0.00 0.00 53 1022.2
20260509011502 18 243 8.0 17.7 0.00 0.00 0.00 55 1022.3
20260509010959 18 249 11.3 22.5 0.00 0.00 0.00 56 1022.3
20260509010457 18 248 12.9 19.3 0.00 0.00 0.00 53 1022.4
20260509005956 18 250 12.9 22.5 0.00 0.00 0.00 54 1022.4
20260509005453 17 253 12.9 20.9 0.00 0.00 0.00 59 1022.5
20260509004952 17 249 14.5 25.7 0.00 0.00 0.00 56 1022.6
20260509004449 17 254 12.9 22.5 0.00 0.00 0.00 59 1022.6
20260509003948 16 274 11.3 19.3 0.00 0.00 0.00 62 1022.7
20260509003444 16 288 8.0 17.7 0.00 0.00 0.00 63 1022.7
20260509002943 16 274 11.3 22.5 0.00 0.00 0.00 62 1022.7
20260509002441 16 266 14.5 24.1 0.00 0.00 0.00 63 1022.7
20260509001437 16 249 14.5 24.1 0.00 0.00 0.00 59 1022.7
20260509000935 16 258 16.1 27.4 0.00 0.00 0.00 59 1022.6
20260509000434 16 257 17.7 27.4 0.00 0.00 0.00 61 1022.7
20260508235933 16 259 16.1 27.4 0.00 0.00 0.00 62 1022.7
20260508235432 16 258 14.5 27.4 0.00 0.00 0.00 63 1022.7
20260508234931 16 262 16.1 27.4 0.00 0.00 0.00 65 1022.7
20260508233925 15 262 14.5 25.7 0.00 0.00 0.00 66 1022.7
20260508233424 15 272 12.9 24.1 0.00 0.00 0.00 67 1022.7
20260508232922 15 270 14.5 24.1 0.00 0.00 0.00 69 1022.6
20260508232420 15 264 17.7 29.0 0.00 0.00 0.00 67 1022.6
20260508231416 15 261 16.1 29.0 0.00 0.00 0.00 67 1022.7
20260508230913 14 256 17.7 29.0 0.00 0.00 0.00 67 1022.6
20260508230412 14 262 17.7 29.0 0.00 0.00 0.00 67 1022.6
20260508225911 14 262 19.3 32.2 0.00 0.00 0.00 67 1022.5
20260508225409 13 261 20.9 32.2 0.00 0.00 0.00 68 1022.6
20260508224907 13 263 17.7 29.0 0.00 0.00 0.00 70 1022.5
20260508223903 13 263 19.3 30.6 0.00 0.00 0.00 69 1022.5
20260508223401 13 262 17.7 29.0 0.00 0.00 0.00 69 1022.5
20260508221851 13 275 14.5 25.7 0.00 0.00 0.00 74 1022.3
20260508221348 13 275 14.5 25.7 0.00 0.00 0.00 73 1022.2
20260508220343 13 267 14.5 25.7 0.00 0.00 0.00 73 1022.2
20260508215842 13 268 16.1 27.4 0.00 0.00 0.00 73 1022.2
20260508215339 13 265 16.1 30.6 0.00 0.00 0.00 73 1022.2
20260508214837 12 261 17.7 30.6 0.00 0.00 0.00 73 1022.1
20260508214336 12 257 20.9 32.2 0.00 0.00 0.00 71 1022.0
20260508213835 12 258 19.3 32.2 0.00 0.00 0.00 72 1021.9
20260508213332 12 262 19.3 29.0 0.00 0.00 0.00 73 1021.8
20260508212327 12 259 17.7 27.4 0.00 0.00 0.00 75 1021.6
20260508211824 12 254 16.1 29.0 0.00 0.00 0.00 77 1021.5
20260508211323 12 251 16.1 32.2 0.00 0.00 0.00 78 1021.3
20260508210318 12 250 19.3 30.6 0.00 0.00 0.00 78 1021.1
20260508205817 12 250 20.9 32.2 0.00 0.00 0.00 77 1021.2
20260508205315 12 252 19.3 30.6 0.00 0.00 0.00 78 1021.1
20260508204811 12 250 19.3 27.4 0.00 0.00 0.00 78 1021.1
20260508204310 12 247 16.1 24.1 0.00 0.00 0.00 78 1021.0
20260508203809 12 247 16.1 25.7 0.00 0.00 0.00 78 1020.9
20260508202804 12 244 16.1 25.7 0.00 0.00 0.00 79 1020.8
20260508202306 12 247 17.7 27.4 0.00 0.00 0.00 79 1020.7
20260508201802 12 245 16.1 24.1 0.00 0.00 0.00 78 1020.7
20260508201259 12 242 14.5 25.7 0.00 0.00 0.00 78 1020.7
20260508200758 12 242 16.1 25.7 0.00 0.00 0.00 77 1020.6
20260508200257 12 240 14.5 27.4 0.00 0.00 0.00 76 1020.6
20260508195756 12 240 17.7 27.4 0.00 0.00 0.00 76 1020.6
20260508195254 12 245 17.7 29.0 0.00 0.00 0.00 75 1020.5
20260508194250 12 242 16.1 27.4 0.00 0.00 0.00 75 1020.3
20260508193746 12 238 14.5 24.1 0.00 0.00 0.00 74 1020.3
20260508193243 12 237 19.3 29.0 0.00 0.00 0.00 72 1020.1
20260508192238 12 240 22.5 35.4 0.00 0.00 0.00 71 1020.0
20260508191233 12 234 20.9 32.2 0.00 0.00 0.00 68 1020.0
20260508190229 12 235 17.7 30.6 0.00 0.00 0.00 68 1019.8
20260508185726 12 237 17.7 29.0 0.00 0.00 0.00 70 1019.8
20260508185224 12 236 17.7 27.4 0.00 0.00 0.00 71 1019.9
20260508184723 12 241 16.1 29.0 0.00 0.00 0.00 68 1019.8
20260508184222 13 241 17.7 30.6 0.00 0.00 0.00 71 1019.8
20260508182210 12 243 16.1 27.4 0.00 0.00 0.00 71 1019.8
20260508181205 13 243 16.1 25.7 0.00 0.00 0.00 73 1019.8
20260508180703 13 246 16.1 27.4 0.00 0.00 0.00 72 1019.8
20260508180202 13 246 16.1 25.7 0.00 0.00 0.00 71 1019.7
20260508175700 13 246 17.7 29.0 0.00 0.00 0.00 71 1019.7
20260508173648 13 249 19.3 35.4 0.00 0.00 0.00 70 1019.6
20260508173147 13 250 16.1 29.0 0.00 0.00 0.00 71 1019.6
20260508172645 13 251 17.7 30.6 0.00 0.00 0.00 72 1019.5
20260508172142 13 249 14.5 29.0 0.00 0.00 0.00 73 1019.6
20260508171138 13 254 16.1 32.2 0.00 0.00 0.00 72 1019.6
20260508170636 13 245 14.5 29.0 0.00 0.00 0.00 73 1019.6
20260508170135 13 249 16.1 30.6 0.00 0.00 0.00 71 1019.6
20260508165130 13 245 16.1 27.4 0.00 0.00 0.00 71 1019.6
20260508163621 13 250 17.7 29.0 0.00 0.00 0.00 69 1019.5
20260508163120 13 251 17.7 27.4 0.00 0.00 0.00 70 1019.6
20260508162618 13 251 17.7 25.7 0.00 0.00 0.00 70 1019.5
20260508162117 13 247 16.1 30.6 0.00 0.00 0.00 69 1019.6
20260508161615 13 243 16.1 27.4 0.00 0.00 0.00 71 1019.6
20260508161112 13 248 16.1 22.5 0.00 0.00 0.00 70 1019.5
20260508160610 13 244 14.5 29.0 0.00 0.00 0.00 71 1019.5
20260508155605 13 242 12.9 22.5 0.00 0.00 0.00 71 1019.5
20260508155103 13 248 14.5 29.0 0.00 0.00 0.00 71 1019.5
20260508154601 13 249 14.5 27.4 0.00 0.00 0.00 71 1019.4
20260508153556 13 244 16.1 27.4 0.00 0.00 0.00 68 1019.5
20260508153055 13 244 14.5 25.7 0.00 0.00 0.00 68 1019.4
20260508152051 13 246 17.7 29.0 0.00 0.00 0.00 69 1019.4
20260508151549 13 246 16.1 27.4 0.00 0.00 0.00 68 1019.5
20260508151048 14 247 17.7 29.0 0.00 0.00 0.00 70 1019.6
20260508150545 14 246 17.7 30.6 0.00 0.00 0.00 68 1019.5
20260508150044 13 249 19.3 29.0 0.00 0.00 0.00 66 1019.6
20260508145542 13 251 16.1 27.4 0.00 0.00 0.00 67 1019.6
20260508145042 13 246 16.1 25.7 0.00 0.00 0.00 65 1019.6
20260508144539 14 244 17.7 32.2 0.00 0.00 0.00 66 1019.6
20260508144037 14 247 19.3 29.0 0.00 0.00 0.00 65 1019.5
20260508143030 14 248 20.9 35.4 0.00 0.00 0.00 64 1019.5
20260508142529 14 245 20.9 32.2 0.00 0.00 0.00 65 1019.5
20260508142027 14 246 19.3 30.6 0.00 0.00 0.00 64 1019.4
20260508141526 14 242 17.7 29.0 0.00 0.00 0.00 65 1019.4
20260508141025 14 246 19.3 30.6 0.00 0.00 0.00 64 1019.4
20260508135515 15 257 19.3 30.6 0.00 0.00 0.00 65 1019.3
20260508135013 14 256 16.1 33.8 0.00 0.00 0.00 64 1019.2
20260508134511 14 248 17.7 29.0 0.00 0.00 0.00 65 1019.4
20260508133507 14 248 17.7 29.0 0.00 0.00 0.00 64 1019.4
20260508133005 14 245 17.7 29.0 0.00 0.00 0.00 64 1019.3
20260508132504 14 246 16.1 25.7 0.00 0.00 0.00 65 1019.4
20260508132003 14 246 17.7 27.4 0.00 0.00 0.00 64 1019.4
20260508131502 14 246 17.7 30.6 0.00 0.00 0.00 63 1019.4
20260508131000 14 244 17.7 32.2 0.00 0.00 0.00 63 1019.3
20260508130458 14 247 14.5 27.4 0.00 0.00 0.00 65 1019.3
20260508125957 14 243 16.1 24.1 0.00 0.00 0.00 62 1019.3
20260508125455 14 245 19.3 27.4 0.00 0.00 0.00 62 1019.3
20260508124954 14 245 17.7 27.4 0.00 0.00 0.00 60 1019.3
20260508124452 14 243 17.7 30.6 0.00 0.00 0.00 60 1019.3
20260508123951 15 242 17.7 30.6 0.00 0.00 0.00 60 1019.3
20260508123450 15 245 16.1 32.2 0.00 0.00 0.00 61 1019.2
20260508122949 15 242 16.1 27.4 0.00 0.00 0.00 62 1019.2
20260508122446 15 247 17.7 29.0 0.00 0.00 0.00 60 1019.1
20260508121945 15 243 16.1 30.6 0.00 0.00 0.00 60 1019.2
20260508121443 15 241 16.1 27.4 0.00 0.00 0.00 60 1019.2
20260508120941 15 244 17.7 32.2 0.00 0.00 0.00 60 1019.3
20260508120440 15 242 16.1 25.7 0.00 0.00 0.00 59 1019.3
20260508115939 15 245 17.7 30.6 0.00 0.00 0.00 59 1019.2
20260508115438 15 247 22.5 33.8 0.00 0.00 0.00 58 1019.2
20260508114936 15 244 17.7 32.2 0.00 0.00 0.00 57 1019.1
20260508113931 15 246 17.7 29.0 0.00 0.00 0.00 59 1019.2
20260508113430 15 247 19.3 40.2 0.00 0.00 0.00 56 1019.2
20260508112926 15 241 17.7 27.4 0.00 0.00 0.00 56 1019.1
20260508112425 15 247 19.3 30.6 0.00 0.00 0.00 56 1019.0
20260508111924 15 248 17.7 33.8 0.00 0.00 0.00 57 1018.9
20260508111423 15 249 20.9 35.4 0.00 0.00 0.00 59 1018.9
20260508110922 15 254 20.9 32.2 0.00 0.00 0.00 57 1018.9
20260508110420 15 250 22.5 35.4 0.00 0.00 0.00 57 1018.8
20260508105919 15 248 17.7 27.4 0.00 0.00 0.00 56 1018.8
20260508104914 15 245 17.7 29.0 0.00 0.00 0.00 53 1018.7
20260508104413 16 244 17.7 32.2 0.00 0.00 0.00 53 1018.7
20260508103910 16 245 17.7 30.6 0.00 0.00 0.00 52 1018.6
20260508102904 16 247 19.3 33.8 0.00 0.00 0.00 52 1018.4
20260508102402 16 246 19.3 32.2 0.00 0.00 0.00 51 1018.4
20260508101357 16 251 19.3 32.2 0.00 0.00 0.00 51 1018.1
20260508100856 16 257 17.7 33.8 0.00 0.00 0.00 51 1018.1
20260508100355 17 257 14.5 22.5 0.00 0.00 0.00 55 1018.0
20260508095853 17 253 14.5 24.1 0.00 0.00 0.00 52 1017.8
20260508095351 17 246 14.5 25.7 0.00 0.00 0.00 47 1017.9
20260508094850 17 236 17.7 27.4 0.00 0.00 0.00 42 1017.8
20260508094348 17 239 20.9 37.0 0.00 0.00 0.00 41 1017.7
20260508093846 17 237 17.7 30.6 0.00 0.00 0.00 43 1017.6
20260508092338 17 235 16.1 25.7 0.00 0.00 0.00 43 1017.3
20260508091837 18 230 16.1 27.4 0.00 0.00 0.00 42 1017.2
20260508091335 18 233 19.3 32.2 0.00 0.00 0.00 41 1017.2
20260508090833 18 229 17.7 29.0 0.00 0.00 0.00 41 1017.2
20260508090332 18 231 19.3 29.0 0.00 0.00 0.00 42 1017.0
20260508084824 18 230 17.7 24.1 0.00 0.00 0.00 40 1016.9
20260508084323 18 228 14.5 24.1 0.00 0.00 0.00 40 1016.8
20260508083822 18 231 17.7 25.7 0.00 0.00 0.00 40 1016.6
20260508082817 18 229 17.7 27.4 0.00 0.00 0.00 39 1016.5
20260508082316 18 229 19.3 35.4 0.00 0.00 0.00 39 1016.4
20260508081814 18 229 16.1 25.7 0.00 0.00 0.00 37 1016.4
20260508080809 18 224 11.3 19.3 0.00 0.00 0.00 37 1016.2
20260508080307 18 227 11.3 19.3 0.00 0.00 0.00 38 1016.1
20260508075804 18 225 11.3 19.3 0.00 0.00 0.00 38 1016.2
20260508074759 18 223 14.5 22.5 0.00 0.00 0.00 37 1015.9
20260508074258 18 222 12.9 20.9 0.00 0.00 0.00 38 1015.7
20260508073253 18 222 14.5 27.4 0.00 0.00 0.00 36 1015.6
20260508072751 18 224 14.5 24.1 0.00 0.00 0.00 36 1015.5
20260508071747 18 226 11.3 22.5 0.00 0.00 0.00 36 1015.3
20260508071246 18 230 14.5 25.7 0.00 0.00 0.00 36 1015.2
20260508070744 18 234 12.9 20.9 0.00 0.00 0.00 37 1015.2
20260508070240 18 228 12.9 19.3 0.00 0.00 0.00 36 1015.1
20260508065739 18 229 11.3 22.5 0.00 0.00 0.00 36 1014.8
20260508065237 18 234 14.5 22.5 0.00 0.00 0.00 36 1014.8